TimeCDT,TemperatureF,Dew PointF,Humidity,Sea Level PressureIn,VisibilityMPH,Wind Direction,Wind SpeedMPH,Gust SpeedMPH,PrecipitationIn,Events,Conditions,WindDirDegrees,DateUTC
12:15 AM,58.8,54.0,84,30.02,10.0,Calm,Calm,-,N/A,,Clear,0,2013-05-16 05:15:00
12:35 AM,57.6,53.4,86,30.02,10.0,Calm,Calm,-,N/A,,Clear,0,2013-05-16 05:35:00
12:55 AM,58.1,53.4,84,30.02,10.0,Calm,Calm,-,N/A,,Clear,0,2013-05-16 05:55:00
1:15 AM,57.7,53.6,86,30.02,10.0,Calm,Calm,-,N/A,,Clear,0,2013-05-16 06:15:00
1:35 AM,56.8,52.9,87,30.02,10.0,Calm,Calm,-,N/A,,Clear,0,2013-05-16 06:35:00
1:55 AM,56.5,53.1,88,30.02,10.0,Calm,Calm,-,N/A,,Clear,0,2013-05-16 06:55:00
2:15 AM,55.8,52.5,89,30.01,10.0,Calm,Calm,-,N/A,,Clear,0,2013-05-16 07:15:00
2:35 AM,55.6,52.5,89,30.01,10.0,Calm,Calm,-,N/A,,Clear,0,2013-05-16 07:35:00
2:55 AM,55.8,52.9,90,30.01,10.0,Calm,Calm,-,N/A,,Clear,0,2013-05-16 07:55:00
3:15 AM,55.6,52.7,90,30.01,10.0,Calm,Calm,-,N/A,,Clear,0,2013-05-16 08:15:00
3:35 AM,55.2,52.7,91,30.01,10.0,Calm,Calm,-,N/A,,Clear,0,2013-05-16 08:35:00
3:55 AM,55.0,52.2,90,30.02,10.0,Calm,Calm,-,N/A,,Clear,0,2013-05-16 08:55:00
4:15 AM,55.4,52.5,90,30.02,10.0,Calm,Calm,-,N/A,,Clear,0,2013-05-16 09:15:00
4:35 AM,54.5,51.8,91,30.03,10.0,Calm,Calm,-,N/A,,Clear,0,2013-05-16 09:35:00
4:55 AM,54.3,51.6,91,30.03,10.0,Calm,Calm,-,N/A,,Clear,0,2013-05-16 09:55:00
5:15 AM,54.0,51.8,92,30.03,10.0,Calm,Calm,-,N/A,,Clear,0,2013-05-16 10:15:00
5:35 AM,53.6,52.0,94,30.04,10.0,Calm,Calm,-,N/A,,Clear,0,2013-05-16 10:35:00
5:55 AM,53.6,51.8,94,30.04,10.0,Calm,Calm,-,N/A,,Clear,0,2013-05-16 10:55:00
6:15 AM,54.3,52.2,92,30.04,10.0,Calm,Calm,-,N/A,,Clear,0,2013-05-16 11:15:00
6:35 AM,55.2,52.9,92,30.05,10.0,Calm,Calm,-,N/A,,Clear,0,2013-05-16 11:35:00
6:55 AM,56.7,53.6,89,30.05,10.0,Calm,Calm,-,N/A,,Clear,0,2013-05-16 11:55:00
7:15 AM,58.1,53.8,86,30.06,10.0,Calm,Calm,-,N/A,,Clear,0,2013-05-16 12:15:00
7:35 AM,59.0,54.3,84,30.06,10.0,Calm,Calm,-,N/A,,Clear,0,2013-05-16 12:35:00
7:55 AM,60.8,55.4,82,30.07,10.0,Calm,Calm,-,N/A,,Clear,0,2013-05-16 12:55:00
8:15 AM,61.7,55.6,80,30.07,10.0,Calm,Calm,-,N/A,,Clear,0,2013-05-16 13:15:00
8:35 AM,63.1,56.1,78,30.07,10.0,Calm,Calm,-,N/A,,Clear,0,2013-05-16 13:35:00
8:55 AM,66.4,57.4,73,30.07,10.0,Calm,Calm,-,N/A,,Clear,0,2013-05-16 13:55:00
9:15 AM,72.1,58.5,62,30.07,10.0,Calm,Calm,-,N/A,,Clear,0,2013-05-16 14:15:00
9:35 AM,73.4,55.9,54,30.07,10.0,WSW,4.6,-,N/A,,Clear,250,2013-05-16 14:35:00
9:55 AM,74.1,55.0,51,30.06,10.0,Calm,Calm,-,N/A,,Clear,0,2013-05-16 14:55:00
10:15 AM,74.8,55.6,51,30.06,10.0,West,5.8,-,N/A,,Clear,260,2013-05-16 15:15:00
10:35 AM,76.5,55.6,48,30.06,10.0,West,3.5,-,N/A,,Clear,270,2013-05-16 15:35:00
10:55 AM,76.6,55.9,49,30.06,10.0,WNW,3.5,-,N/A,,Clear,300,2013-05-16 15:55:00
11:15 AM,77.0,56.5,49,30.05,10.0,WSW,4.6,-,N/A,,Clear,240,2013-05-16 16:15:00
11:35 AM,77.7,55.4,46,30.05,10.0,SSW,3.5,-,N/A,,Clear,210,2013-05-16 16:35:00
11:55 AM,77.4,55.2,46,30.04,10.0,SW,4.6,-,N/A,,Clear,230,2013-05-16 16:55:00
12:15 PM,77.5,55.8,47,30.03,10.0,SSW,4.6,-,N/A,,Clear,200,2013-05-16 17:15:00
12:35 PM,79.0,53.1,40,30.03,10.0,SW,8.1,-,N/A,,Clear,220,2013-05-16 17:35:00
12:55 PM,79.0,52.9,40,30.02,10.0,SW,4.6,-,N/A,,Clear,230,2013-05-16 17:55:00
1:15 PM,79.2,54.5,42,30.02,10.0,Calm,Calm,-,N/A,,Clear,0,2013-05-16 18:15:00
1:35 PM,79.9,54.5,41,30.02,10.0,Calm,Calm,-,N/A,,Clear,0,2013-05-16 18:35:00
2:15 PM,79.2,58.6,49,30.01,10.0,SSW,5.8,-,N/A,,Mostly Cloudy,200,2013-05-16 19:15:00
2:35 PM,79.7,57.9,47,30.01,10.0,SW,4.6,-,N/A,,Mostly Cloudy,220,2013-05-16 19:35:00
2:55 PM,79.0,57.4,47,30.01,10.0,NW,3.5,-,N/A,,Overcast,310,2013-05-16 19:55:00
3:15 PM,78.6,57.6,48,30.01,10.0,West,3.5,-,N/A,,Overcast,270,2013-05-16 20:15:00
3:35 PM,79.3,58.6,49,30.01,10.0,NNW,4.6,-,N/A,,Overcast,340,2013-05-16 20:35:00
3:55 PM,80.6,58.8,47,30.00,10.0,WNW,6.9,-,N/A,,Mostly Cloudy,300,2013-05-16 20:55:00
4:15 PM,78.3,57.0,48,30.00,10.0,Calm,Calm,-,N/A,,Mostly Cloudy,0,2013-05-16 21:15:00
4:35 PM,78.3,57.0,48,30.00,10.0,Calm,Calm,-,N/A,,Mostly Cloudy,0,2013-05-16 21:35:00
5:15 PM,78.4,57.9,49,29.99,10.0,Calm,Calm,-,N/A,,Overcast,0,2013-05-16 22:15:00
5:35 PM,78.3,57.9,49,29.98,10.0,Calm,Calm,-,N/A,,Overcast,0,2013-05-16 22:35:00
5:55 PM,78.3,54.1,43,29.99,10.0,NNW,5.8,-,N/A,,Overcast,330,2013-05-16 22:55:00
6:15 PM,77.5,51.1,40,30.00,10.0,WNW,3.5,-,N/A,,Overcast,300,2013-05-16 23:15:00
6:35 PM,71.4,58.6,64,30.00,10.0,SW,5.8,-,N/A,,Overcast,230,2013-05-16 23:35:00
6:55 PM,69.4,61.0,74,30.02,10.0,WSW,3.5,-,N/A,,Scattered Clouds,240,2013-05-16 23:55:00
7:15 PM,70.0,61.2,73,30.02,10.0,Calm,Calm,-,N/A,,Mostly Cloudy,0,2013-05-17 00:15:00
7:35 PM,68.4,62.1,80,30.02,10.0,Calm,Calm,-,N/A,Rain,Light Rain,0,2013-05-17 00:35:00
7:55 PM,66.6,62.8,88,30.03,10.0,Calm,Calm,-,N/A,,Mostly Cloudy,0,2013-05-17 00:55:00
8:15 PM,66.7,61.9,84,30.03,10.0,WSW,3.5,-,N/A,,Overcast,240,2013-05-17 01:15:00
8:35 PM,65.5,62.1,89,30.04,10.0,SW,5.8,-,N/A,,Mostly Cloudy,220,2013-05-17 01:35:00
8:55 PM,64.4,61.2,89,30.05,10.0,Calm,Calm,-,N/A,,Mostly Cloudy,0,2013-05-17 01:55:00
9:15 PM,64.4,60.8,88,30.05,10.0,West,4.6,-,N/A,,Mostly Cloudy,260,2013-05-17 02:15:00
9:35 PM,64.4,60.1,86,30.06,10.0,SSW,3.5,-,N/A,,Scattered Clouds,210,2013-05-17 02:35:00
9:55 PM,63.7,61.2,91,30.06,10.0,Calm,Calm,-,N/A,,Scattered Clouds,0,2013-05-17 02:55:00
10:15 PM,63.1,60.1,90,30.05,10.0,Calm,Calm,-,N/A,,Clear,0,2013-05-17 03:15:00
10:35 PM,63.0,59.7,89,30.05,10.0,Calm,Calm,-,N/A,,Clear,0,2013-05-17 03:35:00
10:55 PM,62.6,60.8,94,30.05,10.0,Calm,Calm,-,N/A,,Clear,0,2013-05-17 03:55:00
11:15 PM,62.1,59.4,91,30.05,10.0,Calm,Calm,-,N/A,,Clear,0,2013-05-17 04:15:00
11:35 PM,61.2,59.0,93,30.05,10.0,Calm,Calm,-,N/A,,Clear,0,2013-05-17 04:35:00
11:55 PM,61.0,58.3,91,30.05,10.0,Calm,Calm,-,N/A,,Clear,0,2013-05-17 04:55:00